Regional Weather Roundup
Issued by NWS

Home | Current Version | Previous Version | Graphics & Text | Print | Product List | Glossary On
Versions: 1 2 3 4 5 6 7 8 9 10 11 12 13 14 15 16 17 18 19 20 21 22 23 24 25 26 27 28 29 30 31 32 33 34 35 36 37 38 39 40 41 42 43 44 45 46 47 48 49 50
000
ASUS43 KLMK 050902
RWRKY
KENTUCKY REGIONAL WEATHER ROUNDUP
NATIONAL WEATHER SERVICE LOUISVILLE KY
500 AM EDT WED AUG 05 2015

NOTE "FAIR" INDICATES FEW OR NO CLOUDS BELOW 12,000 FEET
WITH NO SIGNIFICANT WEATHER AND/OR OBSTRUCTIONS TO VISIBILITY.

KYZ001>023-026-027-061>063-070>075-051000-
WESTERN AND SOUTH CENTRAL KENTUCKY

CITY           SKY/WX    TMP DP  RH WIND       PRES   REMARKS
PADUCAH        PTCLDY    72  69  90 SE3       29.97S
HENDERSON      MOCLDY    70  66  88 CALM      29.98F
OWENSBORO      CLOUDY    73  70  91 NE8       30.00S
HOPKINSVILLE   MOCLDY    75  68  79 CALM      29.99S
BOWLING GREEN  PTCLDY    72  68  87 CALM      30.01S
GLASGOW        MOCLDY    69  69 100 CALM      30.01S
$$

KYZ024-025-028>034-038-045-046-053-051000-
NORTH CENTRAL KENTUCKY

CITY           SKY/WX    TMP DP  RH WIND       PRES   REMARKS
LOUISVILLE/SDF PTCLDY    73  68  84 NE6       30.03R HAZE
LOUISVILLE/LOU PTCLDY    70  68  93 CALM      30.05R FOG
FORT KNOX      FOG       67  67  97 N3        30.02R VSB 3/4
$$

KYZ035>037-039>044-047>052-055>060-089>105-051000-
NORTHEAST KENTUCKY

CITY           SKY/WX    TMP DP  RH WIND       PRES   REMARKS
LEXINGTON      MOCLDY    67  65  93 CALM      30.06R
COVINGTON      MOCLDY    66  62  87 CALM      30.04R
FRANKFORT      MOCLDY    66  64  93 CALM      30.04R
$$

KYZ054-064>069-076>088-106>120-051000-
SOUTHEAST KENTUCKY

CITY           SKY/WX    TMP DP  RH WIND       PRES   REMARKS
JACKSON        FOG       67  66  97 NW3       30.07R VSB 1/4
LONDON         CLOUDY    69  65  86 CALM      30.04S FOG
SOMERSET       NOT AVBL
MIDDLESBORO    CLOUDY    67  66  97 CALM      30.07S
MONTICELLO     PTSUNNY   68  68 100 CALM      30.06S
$$



USA.gov is the U.S. government's official web portal to all federal, state and local government web resources and services.